| time (UTC) | temp C | wind direction | speed KPH | gust KPH | rain 1hr cm | rain 24hr cm | rain mn cm | humidity % | barometer mb |
| 20260509211554 | 12 | 304 | 0.0 | 0.0 | 0.00 | 0.03 | 0.03 | 87 | 999.5 |
| 20260509210052 | 12 | 294 | 0.0 | 0.0 | 0.00 | 0.03 | 0.03 | 85 | 999.9 |
| 20260509204543 | 12 | 296 | 0.0 | 0.0 | 0.00 | 0.03 | 0.03 | 84 | 1000.1 |
| 20260509203040 | 12 | 304 | 0.0 | 0.0 | 0.00 | 0.03 | 0.03 | 82 | 1000.2 |
| 20260509201539 | 13 | 299 | 0.0 | 0.0 | 0.00 | 0.03 | 0.03 | 83 | 1000.4 |
| 20260509200047 | 13 | 64 | 0.0 | 0.0 | 0.00 | 0.03 | 0.03 | 82 | 1000.3 |
| 20260509194538 | 13 | 64 | 0.0 | 0.0 | 0.00 | 0.03 | 0.03 | 80 | 1000.4 |
| 20260509193037 | 13 | 64 | 0.0 | 0.0 | 0.00 | 0.03 | 0.03 | 78 | 1000.5 |
| 20260509191535 | 13 | 86 | 0.0 | 0.0 | 0.00 | 0.03 | 0.03 | 77 | 1000.8 |
| 20260509190038 | 14 | 78 | 0.0 | 0.0 | 0.00 | 0.03 | 0.03 | 75 | 1001.1 |
| 20260509184536 | 13 | 78 | 0.0 | 0.0 | 0.00 | 0.03 | 0.03 | 75 | 1001.3 |
| 20260509183029 | 13 | 64 | 0.0 | 0.0 | 0.00 | 0.03 | 0.03 | 77 | 1001.6 |
| 20260509181527 | 13 | 75 | 0.0 | 0.0 | 0.00 | 0.03 | 0.03 | 79 | 1001.7 |
| 20260509180026 | 13 | 68 | 0.0 | 0.0 | 0.00 | 0.03 | 0.03 | 80 | 1002.0 |
| 20260509174524 | 13 | 95 | 0.0 | 0.0 | 0.00 | 0.03 | 0.03 | 82 | 1002.1 |
| 20260509173051 | 13 | 57 | 0.0 | 0.0 | 0.00 | 0.03 | 0.03 | 83 | 1002.4 |
| 20260509171528 | 14 | 83 | 0.0 | 0.0 | 0.00 | 0.03 | 0.03 | 83 | 1002.5 |
| 20260509170021 | 14 | 157 | 0.0 | 0.0 | 0.00 | 0.03 | 0.03 | 84 | 1002.5 |
| 20260509164519 | 14 | 86 | 0.0 | 0.0 | 0.00 | 0.03 | 0.03 | 84 | 1002.7 |
| 20260509163023 | 15 | 185 | 0.0 | 14.5 | 0.00 | 0.03 | 0.03 | 82 | 1002.6 |
| 20260509161519 | 15 | 142 | 6.4 | 16.1 | 0.00 | 0.03 | 0.03 | 80 | 1002.6 |
| 20260509160022 | 15 | 156 | 8.0 | 16.1 | 0.00 | 0.03 | 0.03 | 79 | 1002.6 |
| 20260509154516 | 15 | 151 | 9.7 | 17.7 | 0.00 | 0.03 | 0.03 | 76 | 1002.8 |
| 20260509153027 | 16 | 140 | 0.0 | 14.5 | 0.00 | 0.03 | 0.03 | 74 | 1002.8 |
| 20260509151515 | 17 | 159 | 4.8 | 12.9 | 0.00 | 0.03 | 0.03 | 71 | 1002.8 |
| 20260509150014 | 18 | 185 | 4.8 | 14.5 | 0.00 | 0.03 | 0.03 | 69 | 1002.8 |
| 20260509144512 | 19 | 233 | 0.0 | 1.6 | 0.00 | 0.03 | 0.03 | 59 | 1002.9 |
| 20260509143013 | 20 | 121 | 0.0 | 1.6 | 0.00 | 0.03 | 0.03 | 55 | 1002.9 |
| 20260509141511 | 21 | 119 | 0.0 | 0.0 | 0.00 | 0.03 | 0.03 | 50 | 1002.9 |
| 20260509140009 | 21 | 45 | 0.0 | 0.0 | 0.00 | 0.03 | 0.03 | 49 | 1003.1 |
| 20260509134506 | 21 | 13 | 0.0 | 0.0 | 0.00 | 0.03 | 0.03 | 50 | 1003.3 |
| 20260509133005 | 21 | 33 | 0.0 | 0.0 | 0.00 | 0.03 | 0.03 | 49 | 1003.4 |
| 20260509131504 | 21 | 191 | 0.0 | 0.0 | 0.00 | 0.03 | 0.03 | 50 | 1003.5 |
| 20260509130128 | 21 | 14 | 0.0 | 0.0 | 0.00 | 0.03 | 0.03 | 49 | 1003.8 |
| 20260509124559 | 20 | 46 | 0.0 | 0.0 | 0.00 | 0.03 | 0.03 | 51 | 1004.0 |
| 20260509123120 | 20 | 282 | 0.0 | 0.0 | 0.00 | 0.03 | 0.03 | 52 | 1004.2 |
| 20260509121552 | 20 | 12 | 0.0 | 1.6 | 0.00 | 0.03 | 0.03 | 53 | 1004.4 |
| 20260509120052 | 20 | 341 | 0.0 | 1.6 | 0.00 | 0.03 | 0.03 | 55 | 1004.7 |
| 20260509114616 | 20 | 82 | 0.0 | 1.6 | 0.00 | 0.03 | 0.03 | 54 | 1004.9 |
| 20260509113046 | 20 | 45 | 0.0 | 1.6 | 0.00 | 0.03 | 0.03 | 56 | 1005.2 |
| 20260509111541 | 20 | 54 | 0.0 | 1.6 | 0.00 | 0.03 | 0.03 | 55 | 1005.6 |
| 20260509110039 | 19 | 358 | 0.0 | 1.6 | 0.00 | 0.03 | 0.03 | 56 | 1005.8 |
| 20260509104534 | 20 | 28 | 0.0 | 1.6 | 0.00 | 0.03 | 0.03 | 55 | 1006.2 |
| 20260509103030 | 19 | 351 | 0.0 | 1.6 | 0.00 | 0.03 | 0.03 | 54 | 1006.7 |
| 20260509101535 | 18 | 298 | 0.0 | 1.6 | 0.00 | 0.03 | 0.03 | 59 | 1007.0 |
| 20260509100021 | 18 | 19 | 0.0 | 1.6 | 0.00 | 0.03 | 0.03 | 62 | 1007.3 |
| 20260509094527 | 18 | 17 | 0.0 | 1.6 | 0.00 | 0.03 | 0.03 | 64 | 1007.5 |
| 20260509093014 | 17 | 27 | 0.0 | 0.0 | 0.00 | 0.03 | 0.03 | 70 | 1007.8 |
| 20260509091512 | 17 | 89 | 0.0 | 0.0 | 0.00 | 0.03 | 0.03 | 73 | 1008.2 |
| 20260509090005 | 16 | 74 | 0.0 | 0.0 | 0.00 | 0.03 | 0.03 | 75 | 1008.5 |
| 20260509084502 | 15 | 27 | 0.0 | 0.0 | 0.00 | 0.03 | 0.03 | 79 | 1008.7 |
| 20260509083057 | 15 | 104 | 0.0 | 0.0 | 0.00 | 0.03 | 0.03 | 80 | 1009.0 |
| 20260509081558 | 14 | 75 | 0.0 | 0.0 | 0.00 | 0.03 | 0.03 | 82 | 1009.1 |
| 20260509080057 | 13 | 76 | 0.0 | 0.0 | 0.00 | 0.03 | 0.03 | 84 | 1009.1 |
| 20260509074546 | 13 | 133 | 0.0 | 0.0 | 0.00 | 0.05 | 0.03 | 86 | 1009.4 |
| 20260509073046 | 12 | 87 | 0.0 | 0.0 | 0.00 | 0.05 | 0.03 | 88 | 1009.3 |
| 20260509071541 | 12 | 86 | 0.0 | 0.0 | 0.00 | 0.05 | 0.03 | 91 | 1009.4 |
| 20260509070033 | 11 | 53 | 0.0 | 0.0 | 0.00 | 0.05 | 0.03 | 95 | 1009.5 |
| 20260509064531 | 11 | 64 | 0.0 | 0.0 | 0.00 | 0.05 | 0.03 | 96 | 1009.6 |
| 20260509061527 | 10 | 76 | 0.0 | 0.0 | 0.00 | 0.05 | 0.03 | 98 | 1009.7 |
| 20260509060019 | 9 | 58 | 0.0 | 0.0 | 0.00 | 0.05 | 0.03 | 98 | 1009.7 |
| 20260509054515 | 8 | 135 | 0.0 | 0.0 | 0.00 | 0.08 | 0.03 | 98 | 1009.9 |
| 20260509053015 | 7 | 145 | 0.0 | 0.0 | 0.00 | 0.08 | 0.03 | 98 | 1010.1 |
| 20260509051510 | 7 | 138 | 0.0 | 0.0 | 0.00 | 0.08 | 0.03 | 98 | 1010.3 |
| 20260509050017 | 6 | 138 | 0.0 | 0.0 | 0.03 | 0.08 | 0.03 | 97 | 1010.5 |
| 20260509044507 | 6 | 161 | 0.0 | 0.0 | 0.03 | 0.10 | 0.03 | 97 | 1010.6 |
| 20260509043005 | 6 | 161 | 0.0 | 0.0 | 0.03 | 0.10 | 0.03 | 97 | 1010.7 |
| 20260509041502 | 6 | 160 | 0.0 | 0.0 | 0.03 | 0.10 | 0.03 | 97 | 1010.9 |
| 20260509040004 | 6 | 161 | 0.0 | 0.0 | 0.00 | 0.08 | 0.00 | 97 | 1011.0 |
| 20260509034501 | 6 | 161 | 0.0 | 0.0 | 0.00 | 0.13 | 0.00 | 97 | 1011.2 |
| 20260509033001 | 6 | 161 | 0.0 | 0.0 | 0.00 | 0.13 | 0.00 | 97 | 1011.2 |
| 20260509031611 | 6 | 161 | 0.0 | 0.0 | 0.00 | 0.13 | 0.00 | 97 | 1011.3 |
| 20260509030106 | 6 | 161 | 0.0 | 0.0 | 0.00 | 0.13 | 0.00 | 97 | 1011.4 |
| 20260509024558 | 6 | 160 | 0.0 | 0.0 | 0.00 | 0.33 | 0.00 | 97 | 1011.4 |
| 20260509023111 | 6 | 161 | 0.0 | 0.0 | 0.00 | 0.33 | 0.00 | 97 | 1011.4 |
| 20260509021556 | 6 | 161 | 0.0 | 0.0 | 0.00 | 0.33 | 0.00 | 97 | 1011.5 |
| 20260509020054 | 6 | 160 | 0.0 | 0.0 | 0.00 | 0.33 | 0.00 | 96 | 1011.7 |
| 20260509014552 | 7 | 161 | 0.0 | 0.0 | 0.00 | 0.36 | 0.00 | 97 | 1011.8 |
| 20260509013050 | 6 | 161 | 0.0 | 0.0 | 0.00 | 0.36 | 0.00 | 96 | 1012.1 |
| 20260509011548 | 7 | 161 | 0.0 | 0.0 | 0.00 | 0.36 | 0.00 | 97 | 1012.3 |
| 20260509010047 | 7 | 161 | 0.0 | 0.0 | 0.00 | 0.36 | 0.00 | 96 | 1012.5 |
| 20260509004542 | 7 | 160 | 0.0 | 0.0 | 0.00 | 0.36 | 0.00 | 96 | 1012.7 |
| 20260509003045 | 7 | 161 | 0.0 | 0.0 | 0.00 | 0.36 | 0.00 | 96 | 1012.9 |
| 20260509001535 | 7 | 161 | 0.0 | 0.0 | 0.00 | 0.36 | 0.00 | 96 | 1013.2 |
| 20260509000034 | 7 | 161 | 0.0 | 0.0 | 0.00 | 0.36 | 0.00 | 96 | 1013.2 |
| 20260508234532 | 7 | 172 | 0.0 | 0.0 | 0.00 | 0.36 | 0.00 | 96 | 1013.3 |
| 20260508233031 | 7 | 172 | 0.0 | 0.0 | 0.00 | 0.36 | 0.00 | 96 | 1013.3 |
| 20260508231528 | 7 | 171 | 0.0 | 0.0 | 0.00 | 0.36 | 0.00 | 96 | 1013.4 |
| 20260508230025 | 8 | 172 | 0.0 | 0.0 | 0.00 | 0.36 | 0.00 | 96 | 1013.4 |
| 20260508224524 | 8 | 171 | 0.0 | 0.0 | 0.00 | 0.36 | 0.00 | 96 | 1013.6 |
| 20260508223027 | 8 | 173 | 0.0 | 0.0 | 0.00 | 0.36 | 0.00 | 96 | 1013.6 |
| 20260508221520 | 8 | 166 | 0.0 | 0.0 | 0.00 | 0.36 | 0.00 | 96 | 1013.6 |
| 20260508220059 | 8 | 166 | 0.0 | 0.0 | 0.00 | 0.36 | 0.00 | 96 | 1013.9 |
| 20260508214516 | 8 | 144 | 0.0 | 0.0 | 0.00 | 0.36 | 0.36 | 95 | 1014.0 |
| 20260508213014 | 8 | 144 | 0.0 | 0.0 | 0.00 | 0.36 | 0.36 | 95 | 1014.1 |